SBI501 UNNT-UNOO

Flight info

Callsign SBI501
Flight time 1h 5m
Altitude 30000
Route OGAMA1K OGAMA A308 OSNAB G828 SZ A487 URUKI A844 RUMOD RUMOD5B
Aircraft B738/M-SDE2E3FGHIRWXY/LB1

Departure

Time 2026-04-25 13:31
Airport Novosibirsk Tolmachevo Airport (UNNT)

Arrival

Time 2026-04-25 14:36
Airport Omsk Central Airport (UNOO)
Time Latitude Longitude Altitude Speed Heading
2026-04-25 13:18 55.01154 82.66834 372 ft 0 kts 171°
2026-04-25 13:26 55.01153 82.66834 372 ft 0 kts 171°
2026-04-25 13:26 55.01136 82.66839 372 ft 5 kts 170°
2026-04-25 13:26 55.01088 82.66885 372 ft 11 kts 127°
2026-04-25 13:27 55.01087 82.67036 372 ft 15 kts 82°
2026-04-25 13:27 55.01104 82.67232 372 ft 17 kts 81°
2026-04-25 13:27 55.01118 82.67438 372 ft 17 kts 63°
2026-04-25 13:27 55.01211 82.67555 372 ft 16 kts 31°
2026-04-25 13:28 55.01307 82.67654 372 ft 16 kts 31°
2026-04-25 13:28 55.01355 82.67704 372 ft 0 kts 31°
2026-04-25 13:29 55.01363 82.67712 372 ft 3 kts 30°
2026-04-25 13:30 55.01448 82.67773 371 ft 11 kts 353°
2026-04-25 13:30 55.01479 82.67654 371 ft 13 kts 260°
2026-04-25 13:30 55.01475 82.67611 370 ft 0 kts 262°
2026-04-25 13:31 55.01331 82.66025 372 ft 143 kts 262°
2026-04-25 13:31 55.01118 82.64048 778 ft 172 kts 257°
2026-04-25 13:31 55.00914 82.62129 1979 ft 161 kts 257°
2026-04-25 13:31 55.00733 82.60062 2426 ft 188 kts 258°
2026-04-25 13:32 55.00535 82.57719 2916 ft 200 kts 259°
2026-04-25 13:32 55.00328 82.55280 3471 ft 206 kts 259°
2026-04-25 13:32 55.00347 82.52709 3825 ft 229 kts 284°
2026-04-25 13:32 55.01242 82.50210 4082 ft 260 kts 310°
2026-04-25 13:33 55.02564 82.47978 4805 ft 267 kts 315°
2026-04-25 13:33 55.03964 82.45808 5666 ft 270 kts 315°
2026-04-25 13:33 55.05374 82.43636 6520 ft 272 kts 315°
2026-04-25 13:33 55.06313 82.42178 7048 ft 273 kts 315°
2026-04-25 13:34 55.08200 82.39224 8230 ft 272 kts 314°
2026-04-25 13:34 55.09600 82.37011 9114 ft 271 kts 314°
2026-04-25 13:34 55.10998 82.34785 9985 ft 272 kts 313°
2026-04-25 13:34 55.12417 82.32510 10466 ft 287 kts 313°
2026-04-25 13:35 55.13948 82.30040 10626 ft 311 kts 313°
2026-04-25 13:35 55.15585 82.27401 10939 ft 327 kts 313°
2026-04-25 13:35 55.17277 82.24678 11554 ft 333 kts 313°
2026-04-25 13:35 55.18967 82.21952 12260 ft 336 kts 313°
2026-04-25 13:36 55.20693 82.19150 13005 ft 339 kts 311°
2026-04-25 13:36 55.22106 82.15883 13716 ft 336 kts 293°
2026-04-25 13:36 55.23073 82.12155 14432 ft 337 kts 290°
2026-04-25 13:36 55.23993 82.08354 15115 ft 341 kts 289°
2026-04-25 13:37 55.24917 82.04489 15792 ft 346 kts 289°
2026-04-25 13:37 55.25858 82.00571 16487 ft 350 kts 289°
2026-04-25 13:37 55.26816 81.96610 17163 ft 354 kts 290°
2026-04-25 13:37 55.27788 81.92610 17834 ft 359 kts 290°
2026-04-25 13:38 55.28775 81.88564 18472 ft 363 kts 290°
2026-04-25 13:38 55.29775 81.84466 19061 ft 367 kts 290°
2026-04-25 13:38 55.30784 81.80331 19674 ft 370 kts 290°
2026-04-25 13:38 55.31799 81.76166 20255 ft 373 kts 290°
2026-04-25 13:39 55.32823 81.71955 20815 ft 377 kts 290°
2026-04-25 13:39 55.33856 81.67699 21383 ft 380 kts 290°
2026-04-25 13:39 55.34895 81.63406 21936 ft 384 kts 290°
2026-04-25 13:39 55.35945 81.59067 22477 ft 387 kts 290°
2026-04-25 13:40 55.37001 81.54692 23021 ft 391 kts 290°
2026-04-25 13:40 55.38051 81.50332 23526 ft 394 kts 290°
2026-04-25 13:40 55.39124 81.45870 23967 ft 398 kts 290°
2026-04-25 13:40 55.40205 81.41376 24444 ft 399 kts 290°
2026-04-25 13:41 55.41290 81.36869 24920 ft 401 kts 290°
2026-04-25 13:41 55.42378 81.32341 25369 ft 403 kts 290°
2026-04-25 13:41 55.43471 81.27779 25800 ft 405 kts 290°
2026-04-25 13:41 55.44568 81.23193 26231 ft 407 kts 290°
2026-04-25 13:42 55.45669 81.18581 26656 ft 409 kts 290°
2026-04-25 13:42 55.46770 81.13942 27070 ft 411 kts 289°
2026-04-25 13:42 55.47657 81.09160 27557 ft 409 kts 283°
2026-04-25 13:42 55.48339 81.04314 28181 ft 405 kts 281°
2026-04-25 13:43 55.48960 80.99496 28804 ft 402 kts 281°
2026-04-25 13:43 55.49570 80.94695 29348 ft 401 kts 281°
2026-04-25 13:43 55.50189 80.89897 29843 ft 400 kts 281°
2026-04-25 13:43 55.50821 80.85093 30005 ft 405 kts 282°
2026-04-25 13:44 55.51470 80.80241 30013 ft 406 kts 282°
2026-04-25 13:44 55.52761 80.70681 30005 ft 399 kts 282°
2026-04-25 13:45 55.53840 80.62692 30016 ft 400 kts 282°
2026-04-25 13:45 55.55339 80.51521 30011 ft 402 kts 282°
2026-04-25 13:46 55.56624 80.41872 29997 ft 403 kts 282°
2026-04-25 13:46 55.57899 80.32230 29990 ft 403 kts 281°
2026-04-25 13:47 55.59166 80.22597 29988 ft 401 kts 281°
2026-04-25 13:47 55.60418 80.13008 29977 ft 399 kts 281°
2026-04-25 13:48 55.61656 80.03467 29980 ft 397 kts 281°
2026-04-25 13:48 55.62743 79.93960 29970 ft 395 kts 273°
2026-04-25 13:49 55.62468 79.84316 29961 ft 393 kts 258°
2026-04-25 13:49 55.60986 79.75002 29962 ft 394 kts 253°
2026-04-25 13:50 55.59384 79.65728 29952 ft 395 kts 253°
2026-04-25 13:50 55.57789 79.56427 29959 ft 396 kts 253°
2026-04-25 13:51 55.56203 79.47115 29959 ft 396 kts 253°
2026-04-25 13:51 55.54614 79.37794 29959 ft 396 kts 253°
2026-04-25 13:52 55.53018 79.28471 29956 ft 396 kts 253°
2026-04-25 13:52 55.51416 79.19158 29933 ft 396 kts 253°
2026-04-25 13:53 55.49816 79.09915 29930 ft 396 kts 253°
2026-04-25 13:53 55.48200 79.00623 29932 ft 396 kts 253°
2026-04-25 13:54 55.46579 78.91349 29939 ft 396 kts 253°
2026-04-25 13:54 55.44949 78.82072 29939 ft 396 kts 252°
2026-04-25 13:55 55.43313 78.72814 29932 ft 396 kts 252°
2026-04-25 13:55 55.41674 78.63576 29920 ft 396 kts 252°
2026-04-25 13:56 55.40026 78.54336 29925 ft 395 kts 252°
2026-04-25 13:56 55.38374 78.45112 29925 ft 395 kts 252°
2026-04-25 13:57 55.36719 78.35895 29925 ft 395 kts 254°
2026-04-25 13:57 55.36014 78.26395 29924 ft 396 kts 269°
2026-04-25 13:58 55.36583 78.16745 29912 ft 398 kts 275°
2026-04-25 13:58 55.37303 78.07099 29911 ft 397 kts 275°
2026-04-25 13:59 55.38000 77.97456 29895 ft 397 kts 275°
2026-04-25 13:59 55.38672 77.87813 29908 ft 397 kts 275°
2026-04-25 14:00 55.39219 77.79804 29902 ft 397 kts 275°
2026-04-25 14:00 55.39977 77.68533 29901 ft 397 kts 274°
2026-04-25 14:01 55.40616 77.58897 29887 ft 396 kts 274°
2026-04-25 14:01 55.41140 77.50902 29899 ft 396 kts 274°
2026-04-25 14:02 55.41765 77.41270 29895 ft 396 kts 274°
2026-04-25 14:02 55.42382 77.31644 29890 ft 396 kts 274°
2026-04-25 14:03 55.43094 77.20378 29874 ft 396 kts 274°
2026-04-25 14:03 55.43593 77.12376 29881 ft 396 kts 274°
2026-04-25 14:04 55.44188 77.02734 29876 ft 396 kts 274°
2026-04-25 14:04 55.44775 76.93096 29875 ft 395 kts 274°
2026-04-25 14:05 55.45354 76.83445 29878 ft 398 kts 273°
2026-04-25 14:05 55.45932 76.73676 29872 ft 402 kts 273°
2026-04-25 14:06 55.46501 76.63969 29855 ft 394 kts 273°
2026-04-25 14:06 55.47055 76.54349 29870 ft 396 kts 273°
2026-04-25 14:07 55.47605 76.44671 29866 ft 397 kts 273°
2026-04-25 14:07 55.48149 76.34958 29863 ft 398 kts 272°
2026-04-25 14:08 55.48683 76.25294 29857 ft 399 kts 272°
2026-04-25 14:08 55.49211 76.15657 29845 ft 386 kts 272°
2026-04-25 14:09 55.49708 76.06311 29861 ft 382 kts 272°
2026-04-25 14:09 55.50190 75.96944 29482 ft 382 kts 272°
2026-04-25 14:09 55.50347 75.93873 29199 ft 378 kts 272°
2026-04-25 14:10 55.50659 75.87753 28646 ft 371 kts 271°
2026-04-25 14:10 55.50887 75.83254 28224 ft 366 kts 271°
2026-04-25 14:10 55.51110 75.78795 27778 ft 363 kts 271°
2026-04-25 14:10 55.51329 75.74383 27359 ft 359 kts 271°
2026-04-25 14:11 55.51545 75.69993 26923 ft 359 kts 271°
2026-04-25 14:11 55.51760 75.65582 26499 ft 362 kts 271°
2026-04-25 14:11 55.51975 75.61155 26068 ft 361 kts 271°
2026-04-25 14:11 55.52187 75.56754 25633 ft 358 kts 271°
2026-04-25 14:12 55.52397 75.52400 25224 ft 355 kts 271°
2026-04-25 14:12 55.52603 75.48083 24802 ft 352 kts 271°
2026-04-25 14:12 55.52805 75.43799 24388 ft 349 kts 271°
2026-04-25 14:12 55.53004 75.39542 23981 ft 347 kts 271°
2026-04-25 14:13 55.53199 75.35356 23579 ft 345 kts 271°
2026-04-25 14:13 55.53393 75.31156 23123 ft 343 kts 271°
2026-04-25 14:13 55.53584 75.26968 22662 ft 341 kts 271°
2026-04-25 14:13 55.53773 75.22817 22248 ft 337 kts 271°
2026-04-25 14:14 55.53960 75.18714 21844 ft 334 kts 271°
2026-04-25 14:14 55.54142 75.14646 21451 ft 332 kts 270°
2026-04-25 14:14 55.54322 75.10588 21052 ft 332 kts 270°
2026-04-25 14:14 55.54501 75.06527 20646 ft 332 kts 270°
2026-04-25 14:15 55.54681 75.02461 20227 ft 330 kts 270°
2026-04-25 14:15 55.54799 74.99796 19961 ft 329 kts 270°
2026-04-25 14:15 55.55034 74.94433 19437 ft 325 kts 270°
2026-04-25 14:15 55.55207 74.90465 19056 ft 323 kts 270°
2026-04-25 14:16 55.55377 74.86525 18674 ft 321 kts 270°
2026-04-25 14:16 55.55545 74.82611 18299 ft 319 kts 270°
2026-04-25 14:16 55.55710 74.78716 17889 ft 317 kts 270°
2026-04-25 14:16 55.55871 74.74900 17479 ft 314 kts 270°
2026-04-25 14:17 55.56032 74.71063 17110 ft 311 kts 269°
2026-04-25 14:17 55.56190 74.67265 16732 ft 309 kts 269°
2026-04-25 14:17 55.56345 74.63497 16367 ft 307 kts 269°
2026-04-25 14:17 55.56499 74.59724 16002 ft 308 kts 269°
2026-04-25 14:18 55.56651 74.55938 15632 ft 309 kts 269°
2026-04-25 14:18 55.56803 74.52172 15263 ft 306 kts 269°
2026-04-25 14:18 55.56953 74.48436 14889 ft 304 kts 269°
2026-04-25 14:18 55.57101 74.44721 14535 ft 302 kts 269°
2026-04-25 14:19 55.57246 74.41040 14177 ft 300 kts 269°
2026-04-25 14:19 55.57390 74.37374 13819 ft 298 kts 268°
2026-04-25 14:19 55.57530 74.33777 13449 ft 296 kts 268°
2026-04-25 14:19 55.57669 74.30151 13073 ft 294 kts 268°
2026-04-25 14:20 55.57806 74.26567 12741 ft 291 kts 268°
2026-04-25 14:20 55.57771 74.24181 12502 ft 286 kts 255°
2026-04-25 14:20 55.56781 74.19977 12084 ft 280 kts 233°
2026-04-25 14:20 55.55457 74.17489 11747 ft 277 kts 221°
2026-04-25 14:21 55.53994 74.15291 11386 ft 275 kts 220°
2026-04-25 14:21 55.52528 74.13152 11038 ft 272 kts 219°
2026-04-25 14:21 55.51075 74.11035 10715 ft 269 kts 219°
2026-04-25 14:21 55.49639 74.08934 10387 ft 267 kts 219°
2026-04-25 14:22 55.48221 74.06851 10229 ft 262 kts 219°
2026-04-25 14:22 55.46830 74.04800 10108 ft 258 kts 219°
2026-04-25 14:22 55.45482 74.02812 9993 ft 248 kts 219°
2026-04-25 14:22 55.44184 74.00895 9886 ft 239 kts 219°
2026-04-25 14:23 55.42921 73.99030 9638 ft 236 kts 219°
2026-04-25 14:23 55.41677 73.97193 9379 ft 233 kts 219°
2026-04-25 14:23 55.40456 73.95391 9136 ft 231 kts 219°
2026-04-25 14:23 55.39213 73.93561 8866 ft 235 kts 219°
2026-04-25 14:24 55.37959 73.91716 8587 ft 234 kts 219°
2026-04-25 14:24 55.36715 73.89883 8319 ft 232 kts 220°
2026-04-25 14:24 55.35491 73.88053 8030 ft 230 kts 220°
2026-04-25 14:24 55.34274 73.86233 7758 ft 229 kts 220°
2026-04-25 14:25 55.33688 73.85358 7630 ft 228 kts 220°
2026-04-25 14:25 55.33466 73.85025 7579 ft 228 kts 220°
2026-04-25 14:25 55.32263 73.83231 7308 ft 226 kts 220°
2026-04-25 14:25 55.31857 73.82626 7216 ft 226 kts 220°
2026-04-25 14:26 55.29791 73.79805 6787 ft 228 kts 209°
2026-04-25 14:26 55.28355 73.78575 6601 ft 231 kts 206°
2026-04-25 14:26 55.26883 73.77425 6387 ft 232 kts 205°
2026-04-25 14:26 55.25410 73.76281 6170 ft 231 kts 205°
2026-04-25 14:27 55.23951 73.75138 5947 ft 229 kts 205°
2026-04-25 14:27 55.22497 73.73992 5737 ft 228 kts 205°
2026-04-25 14:27 55.21058 73.72850 5530 ft 225 kts 205°
2026-04-25 14:27 55.19663 73.71740 5319 ft 216 kts 205°
2026-04-25 14:28 55.18341 73.70687 5125 ft 207 kts 206°
2026-04-25 14:28 55.17059 73.69663 4941 ft 198 kts 206°
2026-04-25 14:28 55.15834 73.68683 4766 ft 189 kts 205°
2026-04-25 14:28 55.14661 73.67745 4630 ft 182 kts 205°
2026-04-25 14:29 55.13505 73.66822 4466 ft 184 kts 206°
2026-04-25 14:29 55.12336 73.65888 4297 ft 186 kts 206°
2026-04-25 14:29 55.11152 73.64944 4120 ft 188 kts 206°
2026-04-25 14:29 55.09954 73.63993 3952 ft 187 kts 205°
2026-04-25 14:30 55.08746 73.63268 3772 ft 180 kts 199°
2026-04-25 14:30 55.06452 73.62067 3444 ft 166 kts 199°
2026-04-25 14:30 55.05357 73.61487 3418 ft 163 kts 200°
2026-04-25 14:31 55.04246 73.60893 3303 ft 170 kts 200°
2026-04-25 14:31 55.03129 73.60297 3146 ft 165 kts 200°
2026-04-25 14:31 55.02048 73.59720 3005 ft 161 kts 200°
2026-04-25 14:31 55.01053 73.58925 2828 ft 157 kts 223°
2026-04-25 14:32 55.00349 73.57499 2696 ft 154 kts 239°
2026-04-25 14:32 55.00051 73.55785 2550 ft 143 kts 254°
2026-04-25 14:32 54.99816 73.54132 2487 ft 146 kts 253°
2026-04-25 14:32 54.99579 73.52431 2449 ft 140 kts 253°
2026-04-25 14:33 54.99363 73.50843 2354 ft 133 kts 253°
2026-04-25 14:33 54.99148 73.49253 2178 ft 136 kts 254°
2026-04-25 14:33 54.98940 73.47687 2017 ft 132 kts 254°
2026-04-25 14:33 54.98723 73.46125 1784 ft 135 kts 253°
2026-04-25 14:34 54.98515 73.44543 1699 ft 133 kts 255°
2026-04-25 14:34 54.98308 73.42932 1530 ft 138 kts 255°
2026-04-25 14:34 54.98088 73.41315 1346 ft 135 kts 255°
2026-04-25 14:34 54.97871 73.39741 1099 ft 137 kts 255°
2026-04-25 14:35 54.97670 73.38123 941 ft 136 kts 256°
2026-04-25 14:35 54.97449 73.36522 730 ft 136 kts 255°
2026-04-25 14:35 54.97239 73.34915 605 ft 135 kts 256°
2026-04-25 14:35 54.97021 73.33330 400 ft 135 kts 256°
2026-04-25 14:36 54.96812 73.31784 304 ft 118 kts 259°
2026-04-25 14:36 54.96662 73.30646 311 ft 75 kts 257°
2026-04-25 14:36 54.96569 73.29950 314 ft 52 kts 257°
2026-04-25 14:36 54.96506 73.29470 321 ft 27 kts 257°
2026-04-25 14:37 54.96466 73.29193 320 ft 14 kts 250°
2026-04-25 14:37 54.96432 73.29156 318 ft 9 kts 187°
2026-04-25 14:37 54.96353 73.29176 316 ft 14 kts 169°
2026-04-25 14:37 54.96256 73.29217 315 ft 14 kts 165°
2026-04-25 14:38 54.96185 73.29248 314 ft 0 kts 168°
2026-04-25 14:39 54.96184 73.29248 314 ft 1 kts 168°
2026-04-25 14:39 54.96155 73.29259 314 ft 7 kts 167°
2026-04-25 14:39 54.96098 73.29291 314 ft 9 kts 146°
2026-04-25 14:39 54.96085 73.29398 313 ft 10 kts 79°
2026-04-25 14:40 54.96103 73.29534 310 ft 14 kts 77°
2026-04-25 14:40 54.96128 73.29726 308 ft 19 kts 77°
2026-04-25 14:40 54.96161 73.29972 305 ft 22 kts 77°
2026-04-25 14:40 54.96196 73.30233 305 ft 22 kts 77°
2026-04-25 14:41 54.96224 73.30442 305 ft 15 kts 77°
2026-04-25 14:41 54.96246 73.30612 304 ft 14 kts 76°
2026-04-25 14:41 54.96269 73.30776 301 ft 14 kts 77°
2026-04-25 14:41 54.96291 73.30943 303 ft 14 kts 77°
2026-04-25 14:42 54.96314 73.31116 299 ft 15 kts 77°
2026-04-25 14:42 54.96322 73.31176 300 ft 15 kts 77°
2026-04-25 14:42 54.96363 73.31479 300 ft 15 kts 77°
2026-04-25 14:42 54.96363 73.31626 298 ft 12 kts 122°
2026-04-25 14:43 54.96305 73.31727 297 ft 12 kts 133°
2026-04-25 14:43 54.96297 73.31791 298 ft 0 kts 75°
2026-04-25 14:43 54.96298 73.31801 297 ft 2 kts 73°
2026-04-25 14:43 54.96296 73.31843 297 ft 5 kts 111°
2026-04-25 14:44 54.96269 73.31901 299 ft 1 kts 134°